Flag for U.S.A. Weather past 2 weeks in Rapid City, South Dakota, U.S.A.

Now
55 °F

Overcast.


Feels Like: 51 °F
Forecast: 43 / 58 °F
Wind: 16 mph from North

Location: Ellsworth Air Force Base

Current Time: May 29, 2015 at 4:49:10 PM

Latest Report: May 29, 2015 at 3:58 PM


Visibility: 10 mi

Pressure: 30.26 "Hg

Humidity: 59%

Dew point: 41 °F

Location of Rapid CityLocation

Historic Weather in Rapid City — Graph

°F

Rapid City temperature yesterday

Maximum temperature yesterday: 71 °F (at 11:58 AM)
Minimum temperature yesterday: 53 °F (at 5:58 AM)
Average temperature yesterday: 60 °F

Past Weeks' High & Low Weather Summary

 TemperatureHumidityPressure
High72 °F (May 16, 3:58 PM)100% (May 14, 10:58 PM)30.45 "Hg (May 14, 10:58 PM)
Low35 °F (May 21, 3:58 AM)25% (May 18, 3:58 PM)29.52 "Hg (May 16, 3:58 PM)
Average52 °F81%30.01 "Hg
* Reported May 14 2:58 PM — May 29 2:58 PM, Rapid City, Weather by CustomWeather, © 2015

Note: Actual official high and low records may vary slightly from our data, if they occured in-between our weather recording intervals... More about our weather records

Advertising

Rapid City weather history for previous 24 hours

 ConditionsComfort  
Time TempWeatherWind HumidityBarometerVisibility
2:58 PM
Fri, May 29
55 °FPartly sunny.20 mph61%30.25 "Hg10 mi
2:03 PM52 °FBroken clouds.23 mph82%30.25 "Hg10 mi
1:58 PM50 °FMostly cloudy.17 mph86%30.26 "Hg10 mi
12:58 PM46 °FMostly cloudy.21 mph100%30.26 "Hg10 mi
11:58 AM46 °FDrizzle. Fog.18 mph100%30.25 "Hg3 mi
10:58 AM47 °FLight rain. Fog.21 mph100%30.24 "Hg3 mi
9:58 AM47 °FLight rain. Fog.22 mph100%30.22 "Hg4 mi
8:58 AM47 °FLight rain. Mostly cloudy.20 mph100%30.21 "Hg4 mi
7:58 AM49 °FLight rain. Fog.22 mph100%30.17 "Hg1 mi
6:58 AM50 °FLight rain. Fog.22 mph100%30.14 "Hg4 mi
6:48 AM50 °FHeavy rain. Fog.21 mph100%30.13 "Hg1 mi
5:58 AM52 °FLight rain. Fog.23 mph100%30.10 "Hg4 mi
4:58 AM54 °FMostly cloudy.20 mph100%30.06 "Hg10 mi
4:04 AM55 °FLight rain. Overcast.18 mph100%30.06 "Hg10 mi
3:58 AM56 °FLight rain. Mostly cloudy.15 mph94%30.03 "Hg10 mi
2:58 AM56 °FMostly cloudy.20 mph90%30.00 "Hg10 mi
2:53 AM57 °FMostly cloudy.20 mph88%30.04 "Hg10 mi
2:03 AM57 °FMostly cloudy.22 mph82%30.03 "Hg10 mi
12:58 AM58 °FMostly cloudy.23 mph80%29.96 "Hg10 mi
11:58 PM
Thu, May 28
60 °FPassing clouds.22 mph76%29.97 "Hg10 mi
10:58 PM58 °FPassing clouds.15 mph75%29.96 "Hg10 mi
9:58 PM55 °FClear.8 mph86%29.96 "Hg10 mi
8:58 PM56 °FClear.10 mph91%29.93 "Hg10 mi
7:58 PM59 °FBroken clouds.17 mph84%29.93 "Hg10 mi
6:58 PM59 °FPartly sunny.16 mph87%29.95 "Hg10 mi
6:49 PM59 °FPartly sunny.15 mph88%29.96 "Hg10 mi
5:58 PM57 °FRain. Overcast.12 mph96%29.92 "Hg7 mi
5:04 PM61 °FThunderstorms. More clouds than sun.13 mph77%29.96 "Hg5 mi
Weather by CustomWeather, © 2015

See weather overviewHow to use our weather pages